Flag for Italy Weather past 2 weeks in Palermo, Italy

Now
82 °F

Sunny.


Feels Like: 85 °F
Forecast: 75 / 90 °F
Wind: 8 mph from West

Location: Palermo / Punta Raisi

Current Time: Sep 3, 2015 at 11:32:31 AM

Latest Report: Sep 3, 2015 at 10:50 AM


Visibility: 10 mi

Pressure: 29.98 "Hg

Humidity: 58%

Dew point: 66 °F

Location of PalermoLocation

Historic Weather in Palermo — Graph

°F

Palermo temperature yesterday

Maximum temperature yesterday: 84 °F (at 3:50 PM)
Minimum temperature yesterday: 72 °F (at 3:50 AM)
Average temperature yesterday: 79 °F

Past Weeks' High & Low Weather Summary

 TemperatureHumidityPressure
High90 °F (Aug 24, 2:20 PM)89% (Aug 26, 2:20 AM)30.18 "Hg (Aug 26, 2:20 AM)
Low70 °F (Aug 23, 4:50 AM)29% (Aug 25, 1:20 AM)29.92 "Hg (Sep 3, 5:50 AM)
Average80 °F69%30.03 "Hg
* Reported Aug 19 10:20 AM — Sep 3 10:20 AM, Palermo, Weather by CustomWeather, © 2015

Note: Actual official high and low records may vary slightly from our data, if they occured in-between our weather recording intervals... More about our weather records

Advertising

Palermo weather history for previous 24 hours

 ConditionsComfort  
Time TempWeatherWind HumidityBarometerVisibility
10:20 AM
Thu, Sep 3
82 °FSunny.9 mph62%29.98 "Hg10 mi
9:50 AM81 °FSunny.9 mph66%29.98 "Hg10 mi
9:20 AM82 °FSunny.9 mph51%29.98 "Hg10 mi
8:50 AM82 °FSunny.9 mph55%29.95 "Hg10 mi
8:20 AM79 °FSunny.3 mph61%29.95 "Hg10 mi
7:50 AM77 °FSunny.7 mph65%29.95 "Hg10 mi
7:20 AM75 °FClear.8 mph65%29.95 "Hg10 mi
6:50 AM75 °FClear.6 mph65%29.95 "Hg10 mi
6:20 AM77 °FClear.2 mph61%29.95 "Hg10 mi
5:50 AM75 °FClear.6 mph69%29.92 "Hg10 mi
5:20 AM77 °FClear.3 mph57%29.95 "Hg10 mi
4:50 AM79 °FClear.9 mph54%29.95 "Hg10 mi
4:20 AM79 °FClear.3 mph54%29.95 "Hg10 mi
3:20 AM81 °FClear.6 mph54%29.95 "Hg10 mi
2:50 AM81 °FClear.8 mph54%29.95 "Hg10 mi
2:20 AM79 °FClear.9 mph61%29.98 "Hg10 mi
1:20 AM81 °FClear.10 mph51%29.98 "Hg10 mi
12:50 AM81 °FClear.14 mph54%29.98 "Hg10 mi
11:50 PM
Wed, Sep 2
79 °FClear.3 mph74%29.98 "Hg10 mi
11:20 PM79 °FClear.3 mph79%29.98 "Hg10 mi
10:50 PM77 °FPassing clouds.6 mph79%29.98 "HgN/A
10:20 PM79 °FPassing clouds.6 mph74%30.01 "HgN/A
9:50 PM79 °FClear.2 mph79%29.98 "Hg10 mi
9:20 PM81 °FClear.1 mph74%29.98 "Hg10 mi
8:50 PM79 °FClear.2 mph74%29.98 "Hg10 mi
8:20 PM81 °FSunny.5 mph74%29.95 "Hg10 mi
7:50 PM81 °FSunny.7 mph74%29.95 "Hg10 mi
7:20 PM81 °FSunny.9 mph74%29.95 "Hg10 mi
6:50 PM82 °FSunny.8 mph70%29.95 "Hg10 mi
6:20 PM82 °FSunny.8 mph70%29.95 "Hg10 mi
5:50 PM82 °FSunny.8 mph70%29.98 "Hg10 mi
5:20 PM82 °FSunny.9 mph74%29.95 "Hg10 mi
4:50 PM82 °FSunny.9 mph70%29.95 "Hg10 mi
4:20 PM82 °FSunny.9 mph70%29.95 "Hg10 mi
3:50 PM84 °FSunny.12 mph66%29.98 "Hg10 mi
3:20 PM82 °FSunny.12 mph70%29.98 "Hg10 mi
2:50 PM82 °FSunny.12 mph70%29.98 "Hg10 mi
2:20 PM82 °FSunny.10 mph70%29.98 "Hg10 mi
1:50 PM82 °FSunny.9 mph70%29.98 "Hg10 mi
1:20 PM82 °FSunny.8 mph70%29.98 "Hg10 mi
12:50 PM82 °FSunny.6 mph70%29.98 "Hg10 mi
12:20 PM82 °FSunny.6 mph70%29.98 "Hg10 mi
11:50 AM82 °FSunny.3 mph70%29.98 "Hg10 mi
11:20 AM82 °FSunny.3 mph70%30.01 "Hg10 mi
Weather by CustomWeather, © 2015

See weather overviewHow to use our weather pages